Change the Weather History Date:

Saturday, December 28, 2013

  Actual Average Record
Temperature  
Mean Temperature 33 °F -  
Max Temperature 45 °F 42 °F 66 °F (1999)
Min Temperature 21 °F 17 °F 12 °F (2014)
Degree Days  
Heating Degree Days 32    
Moisture  
Dew Point 28 °F    
Average Humidity 75    
Maximum Humidity 96    
Minimum Humidity 58    
Precipitation  
Precipitation 0.00 in - - ()
Sea Level Pressure  
Sea Level Pressure 29.99 in    
Wind  
Wind Speed 6 mph (SSE)    
Max Wind Speed 23 mph    
Max Gust Speed 32 mph    
Visibility 10 miles    
Events      
Averages and records for this station are not official NWS values.
T = Trace of Precipitation, MM = Missing Value Source: NWS Daily Summary

Daily Weather History Graph

Daily Weather History Graph

Search for Another Location

Airport or City:

Trip Planner

Search our weather history database for the weather conditions in past years. The results will help you decide how hot, cold, wet, or windy it might be!

Date:

Astronomy

Dec. 28, 2013 Rise Set
Actual Time 7:46 AM CST 5:19 PM CST
Civil Twilight 7:17 AM CST 5:49 PM CST
Nautical Twilight 6:44 AM CST 6:22 PM CST
Astronomical Twilight 6:12 AM CST 6:54 PM CST
Moon 3:27 AM CST (12/28) 2:09 PM CST (12/28)
Length of Visible Light 10h 31m
Length of Day
9h 32m
Waning Crescent, 19% of the Moon is Illuminated
Dec 28
Waning Crescent
Jan 1
New
Jan 7
First Quarter
Jan 15
Full
Jan 23
Last Quarter

Hourly Weather History & Observations

Time (CST) Temp. Windchill Dew Point Humidity Pressure Visibility Wind Dir Wind Speed Gust Speed Precip Events Conditions
12:52 AM 28.9 °F 25.2 °F 26.1 °F 89% 30.17 in 10.0 mi South 3.5 mph - N/A   Clear
1:52 AM 32.0 °F 27.5 °F 26.1 °F 79% 30.14 in 10.0 mi SSW 4.6 mph - N/A   Clear
2:52 AM 28.9 °F 23.9 °F 23.0 °F 78% 30.14 in 10.0 mi SSW 4.6 mph - N/A   Clear
3:52 AM 30.0 °F 24.1 °F 24.1 °F 79% 30.12 in 10.0 mi South 5.8 mph - N/A   Clear
4:52 AM 28.0 °F 24.2 °F 23.0 °F 81% 30.10 in 10.0 mi SSE 3.5 mph - N/A   Clear
5:52 AM 27.0 °F 20.5 °F 21.9 °F 81% 30.08 in 10.0 mi SSE 5.8 mph - N/A   Clear
6:52 AM 25.0 °F 17.1 °F 21.0 °F 85% 30.08 in 10.0 mi SSE 6.9 mph - N/A   Clear
7:52 AM 21.0 °F 14.6 °F 19.9 °F 96% 30.09 in 10.0 mi SSE 4.6 mph - N/A   Clear
8:52 AM 28.9 °F 22.8 °F 24.1 °F 82% 30.07 in 10.0 mi SSE 5.8 mph - N/A   Clear
9:52 AM 34.0 °F 27.2 °F 27.0 °F 75% 30.06 in 10.0 mi South 8.1 mph - N/A   Clear
10:52 AM 39.0 °F 32.3 °F 28.9 °F 67% 30.03 in 10.0 mi South 10.4 mph - N/A   Clear
11:52 AM 42.1 °F 36.1 °F 28.9 °F 60% 29.99 in 10.0 mi South 10.4 mph - N/A   Clear
12:52 PM 44.1 °F 38.6 °F 30.0 °F 58% 29.94 in 10.0 mi South 10.4 mph - N/A   Clear
1:52 PM 45.0 °F 40.1 °F 30.9 °F 58% 29.89 in 10.0 mi South 9.2 mph - N/A   Clear
2:52 PM 44.1 °F 38.1 °F 32.0 °F 63% 29.88 in 10.0 mi South 11.5 mph - N/A   Clear
3:52 PM 45.0 °F 39.7 °F 33.1 °F 63% 29.86 in 10.0 mi South 10.4 mph - N/A   Clear
4:52 PM 43.0 °F 37.7 °F 33.1 °F 68% 29.86 in 10.0 mi SSE 9.2 mph - N/A   Clear
5:52 PM 39.9 °F 35.8 °F 30.9 °F 70% 29.86 in 10.0 mi South 5.8 mph - N/A   Clear
6:52 PM 39.0 °F 34.8 °F 32.0 °F 76% 29.86 in 10.0 mi SSE 5.8 mph - N/A   Clear
7:52 PM 37.0 °F 34.5 °F 30.9 °F 79% 29.89 in 10.0 mi SE 3.5 mph - N/A   Clear
8:52 PM 37.0 °F 34.5 °F 30.0 °F 76% 29.90 in 10.0 mi SE 3.5 mph - N/A   Clear
9:52 PM 28.9 °F - 26.1 °F 89% 29.92 in 10.0 mi Calm Calm - N/A   Clear
10:52 PM 41.0 °F 32.8 °F 30.9 °F 67% 29.95 in 10.0 mi North 16.1 mph 25.3 mph N/A   Clear
11:52 PM 37.0 °F 25.9 °F 30.0 °F 76% 29.99 in 10.0 mi NNE 23.0 mph 32.2 mph N/A   Scattered Clouds